Regional Weather Roundup
Issued by NWS Kansas City/Pleasant Hill, MO

Home | Current Version | Previous Version | Text Only | Print | Product List | Glossary On
Versions: 1 2 3 4 5 6 7 8 9 10 11 12 13 14 15 16 17 18 19 20 21 22 23 24 25 26 27 28
000
ASUS43 KEAX 280610
RWREAX

WEATHER ROUNDUP FOR EASTERN KANSAS AND NORTHWEST MISSOURI
NATIONAL WEATHER SERVICE KANSAS CITY/PLEASANT HILL MO
100 AM CDT SAT MAY 28 2016

KSZ040-057-103>105-MOZ028-029-037-043-280700-
...KANSAS CITY METROPOLITAN AREA...

CITY           SKY/WX    TMP DP  RH WIND       PRES   REMARKS
K.C. INTL      CLOUDY    60  58  92 NE8       29.73F
6HR MIN TEMP:  60; 6HR MAX TEMP:  69; 6HR PCP:  0.23;

K.C. DOWNTOWN  CLOUDY    61  58  90 E3        29.73F
6HR MIN TEMP:  61; 6HR MAX TEMP:  73; 6HR PCP:  0.44;

LEES SUMMIT    PTCLDY    60  58  92 SE5       29.75F
6HR MIN TEMP:  60; 6HR MAX TEMP:  74; 6HR PCP:  0.52;

OLATHE - IXD   MOCLDY    59  58  96 SE5       29.76R
6HR MIN TEMP:  59; 6HR MAX TEMP:  71; 6HR PCP:  0.25;

OLATHE - OJC   MOCLDY    58  57  97 CALM      29.75S
6HR MIN TEMP:  58; 6HR MAX TEMP:  71; 6HR PCP:  0.21;

LAWRENCE       CLOUDY    59  58  96 SE6       29.75R

$$

MOZ001>008-011>017-020>025-030>033-038>040-044>046-053-054-280700-
...NORTHERN AND CENTRAL MISSOURI...

CITY           SKY/WX    TMP DP  RH WIND       PRES   REMARKS
ST. JOSEPH     LGT RAIN  60  58  92 NE13      29.72F
6HR MIN TEMP:  60; 6HR MAX TEMP:  72; 6HR PCP:  0.33;

MOSBY          LGT RAIN  59  59 100 N10       29.73F
WARRENSBURG    CLOUDY    59  57  94 S6        29.78S
WHITEMAN AFB   MOCLDY    62  62 100 NW5       29.77F
6HR MIN TEMP:  62; 6HR MAX TEMP:  74; 6HR PCP: TRACE;

CLINTON        CLOUDY    61  59  94 CALM      29.82S
SEDALIA        LGT RAIN  68  62  81 SW10G21   29.80R
6HR MIN TEMP:  69; 6HR MAX TEMP:  75;

WARSAW         NOT AVBL
CHILLICOTHE      N/A     67  66  97 SE5       29.75F
6HR MIN TEMP:  66; 6HR MAX TEMP:  70; 6HR PCP:  0.39;

KIRKSVILLE     LGT RAIN  64  63  96 S5        29.78F
6HR MIN TEMP:  64; 6HR MAX TEMP:  68; 6HR PCP:  0.67;


$$

MOZ041-047>049-056>058-063>065-088>090-097-280700-
...EASTERN AND SOUTHERN MISSOURI...

CITY           SKY/WX    TMP DP  RH WIND       PRES   REMARKS
ST. LOUIS INTL MOCLDY    71  67  87 S10       29.83S
6HR MIN TEMP:  71; 6HR MAX TEMP:  74; 6HR PCP:  0.11;

SPIRIT OF STL  PTCLDY    69  67  93 VRB3      29.82S
COLUMBIA       CLOUDY    68  67  96 S8        29.80S
JEFFERSON CITY MOCLDY    69  66  90 SE5       29.80R
ROLLA          MOCLDY    68  64  87 S14G21    29.82R
SPRINGFIELD    PTCLDY    66  62  87 S9        29.82R
JOPLIN         CLOUDY    66  58  75 VRB3      29.82R
WEST PLAINS    CLOUDY    68  63  84 S8        29.88S

$$

IAZ060-094-KSZ022-034>040-054-083-096-NEZ052-066-093-280700-
...KANSAS...SOUTHEAST NEBRASKA AND IOWA...

CITY           SKY/WX    TMP DP  RH WIND       PRES   REMARKS
TOPEKA         CLOUDY    60  58  92 SE3       29.74R
6HR MIN TEMP:  60; 6HR MAX TEMP:  72; 6HR PCP:  0.06;

MANHATTAN      MOCLDY    59  56  89 NW5       29.75R
EMPORIA        CLOUDY    60  57  89 S13       29.71S
CHANUTE        PTCLDY    61  58  90 SE12      29.75R
WICHITA        MOCLDY    64  59  83 S15       29.69F
OMAHA          CLOUDY    63  59  87 N3        29.71F
LINCOLN        MOCLDY    61  56  83 NE3       29.72F
FALLS CITY     LGT RAIN  61  60  97 VRB3      29.76S
LAMONI         CLOUDY    63  63 100 E3        29.75F
DES MOINES     LGT RAIN  66  62  87 S3        29.75F

$$





USA.gov is the U.S. government's official web portal to all federal, state and local government web resources and services.